Climatologie pour Saint-Brevin les Pins
Jour • Résumé pour juillet 9, 2017 Système :  Métrique    Anglais   Mixte
« - 1 jour
+ 1 jour »
Jour Semaine Mois Année Personnalisé
  Maximum : Minimum : Moyenne :
Température sous abri : -17.8 °C -8.1 °C -4.7 °C
Point de rosée : -17.8 °C -9.6 °C -8.3 °C
Humidité : Humidity % 46 % 68 %
Vitesse du vent : 0 km/h 0 km/h 10.1 km/h
Rafale : 0 km/h - -
Direction :- - South
Pression : 0 hPa 34198.6 hPa -
Précipitations : 0 mm    
Historical Graphs
 
 
Tableau de données pour juillet 9, 2017
Heure Tempé Pt rosée Pression Vent Vitesse Rafale Humidité Taux pluie (/hr) Soleil
-17.8 °C -17.8 °C 0 hPa Calm     Humidity % 0 mm SolarRadiationWatts/m^2 W/m2 Conditions
00:00 -5.4 °C -9.2 °C 34361.1 hPa NNE 5.1 km/h 18.2 km/h 65 % 0 mm 0 W/m2
00:10 -5.5 °C -9.3 °C 34361.1 hPa NNE 5.1 km/h 20.8 km/h 65 % 0 mm 0 W/m2
00:15 -5.6 °C -9.4 °C 34361.1 hPa North 2.6 km/h 20.8 km/h 65 % 0 mm 0 W/m2
00:20 -5.6 °C -9.3 °C 34361.1 hPa North 5.1 km/h 18.2 km/h 66 % 0 mm 0 W/m2
00:25 -5.6 °C -9.4 °C 34361.1 hPa NNE 5.1 km/h 20.8 km/h 65 % 0 mm 0 W/m2
00:30 -5.7 °C -9.5 °C 34361.1 hPa NE 7.7 km/h 20.8 km/h 65 % 0 mm 0 W/m2
00:35 -5.7 °C -9.4 °C 34361.1 hPa NNE 7.7 km/h 18.2 km/h 66 % 0 mm 0 W/m2
00:40 -5.7 °C -9.6 °C 34347.6 hPa NNE 12.9 km/h 15.6 km/h 65 % 0 mm 0 W/m2
00:45 -5.8 °C -9.6 °C 34347.6 hPa North 2.6 km/h 23.3 km/h 65 % 0 mm 0 W/m2
00:50 -5.8 °C -9.5 °C 34347.6 hPa NNE 12.9 km/h 23.3 km/h 66 % 0 mm 0 W/m2
00:55 -5.9 °C -9.6 °C 34347.6 hPa North 7.7 km/h 23.3 km/h 66 % 0 mm 0 W/m2
01:00 -5.9 °C -9.6 °C 34347.6 hPa North 7.7 km/h 25.9 km/h 66 % 0 mm 0 W/m2
01:05 -5.9 °C -9.5 °C 34337.4 hPa ENE 5.1 km/h 28.5 km/h 67 % 0 mm 0 W/m2
01:10 -5.9 °C -9.6 °C 34337.4 hPa NNE 7.7 km/h 28.5 km/h 66 % 0 mm 0 W/m2
01:15 -5.9 °C -9.5 °C 34337.4 hPa NNW 12.9 km/h 23.3 km/h 67 % 0 mm 0 W/m2
01:20 -6 °C -9.6 °C 34337.4 hPa NNE 2.6 km/h 23.3 km/h 67 % 0 mm 0 W/m2
01:25 -6.1 °C -9.5 °C 34337.4 hPa NE 10.3 km/h 23.3 km/h 68 % 0 mm 0 W/m2
01:30 -6.2 °C -9.5 °C 34337.4 hPa NNE 5.1 km/h 23.3 km/h 69 % 0 mm 0 W/m2
01:35 -6.3 °C -9.4 °C 34337.4 hPa North 12.9 km/h 25.9 km/h 70 % 0 mm 0 W/m2
01:40 -6.3 °C -9.4 °C 34327.3 hPa NE 10.3 km/h 25.9 km/h 70 % 0 mm 0 W/m2
01:45 -6.3 °C -9.3 °C 34337.4 hPa Calm   20.8 km/h 71 % 0 mm 0 W/m2
01:50 -6.3 °C -9.4 °C 34327.3 hPa NNE 2.6 km/h 23.3 km/h 71 % 0 mm 0 W/m2
01:55 -6.4 °C -9.3 °C 34337.4 hPa NNE 7.7 km/h 23.3 km/h 72 % 0 mm 0 W/m2
02:00 -6.4 °C -9.2 °C 34327.3 hPa NNW 7.7 km/h 18.2 km/h 73 % 0 mm 0 W/m2
02:05 -6.5 °C -9.3 °C 34327.3 hPa North 5.1 km/h 25.9 km/h 73 % 0 mm 0 W/m2
02:10 -6.6 °C -9.3 °C 34327.3 hPa NNE 2.6 km/h 25.9 km/h 73 % 0 mm 0 W/m2
02:15 -6.6 °C -9.3 °C 34327.3 hPa North 7.7 km/h 20.8 km/h 74 % 0 mm 0 W/m2
02:20 -6.7 °C -9.2 °C 34327.3 hPa NNE 7.7 km/h 18.2 km/h 75 % 0 mm 0 W/m2
02:25 -6.8 °C -9.3 °C 34327.3 hPa NNE 10.3 km/h 20.8 km/h 75 % 0 mm 0 W/m2
02:30 -6.7 °C -9.2 °C 34313.7 hPa ENE 12.9 km/h 20.8 km/h 76 % 0 mm 0 W/m2
02:35 -6.7 °C -9.2 °C 34313.7 hPa ENE 7.7 km/h 20.8 km/h 76 % 0 mm 0 W/m2
02:40 -6.8 °C -9.2 °C 34313.7 hPa NE 12.9 km/h 18.2 km/h 76 % 0 mm 0 W/m2
02:45 -6.9 °C -9.2 °C 34313.7 hPa NNE 5.1 km/h 23.3 km/h 77 % 0 mm 0 W/m2
02:50 -6.9 °C -9.1 °C 34313.7 hPa NE 10.3 km/h 23.3 km/h 78 % 0 mm 0 W/m2
02:55 -7 °C -9.2 °C 34303.6 hPa North 10.3 km/h 18.2 km/h 78 % 0 mm 0 W/m2
03:00 -7 °C -9.1 °C 34313.7 hPa NE 7.7 km/h 23.3 km/h 79 % 0 mm 0 W/m2
03:05 -7.1 °C -9.1 °C 34313.7 hPa NNE 2.6 km/h 23.3 km/h 79 % 0 mm 0 W/m2
03:10 -7.1 °C -9.1 °C 34303.6 hPa NE 10.3 km/h 18.2 km/h 80 % 0 mm 0 W/m2
03:15 -7.1 °C -9.1 °C 34303.6 hPa NE 7.7 km/h 18.2 km/h 80 % 0 mm 0 W/m2
03:20 -7.1 °C -9 °C 34303.6 hPa NNE 7.7 km/h 20.8 km/h 81 % 0 mm 0 W/m2
03:25 -7.2 °C -9 °C 34303.6 hPa NNE 5.1 km/h 20.8 km/h 81 % 0 mm 0 W/m2
03:30 -7.2 °C -9.1 °C 34303.6 hPa NE 23.3 km/h 23.3 km/h 81 % 0 mm 0 W/m2
03:35 -7.2 °C -8.9 °C 34303.6 hPa NNW 10.3 km/h 23.3 km/h 82 % 0 mm 0 W/m2
03:40 -7.2 °C -8.9 °C 34293.4 hPa NE 12.9 km/h 23.3 km/h 82 % 0 mm 0 W/m2
03:45 -7.2 °C -8.9 °C 34293.4 hPa North 10.3 km/h 23.3 km/h 82 % 0 mm 0 W/m2
03:50 -7.2 °C -8.9 °C 34293.4 hPa Calm   23.3 km/h 82 % 0 mm 0 W/m2
03:55 -7.3 °C -8.9 °C 34293.4 hPa North 15.6 km/h 18.2 km/h 83 % 0 mm 0 W/m2
04:00 -7.3 °C -8.9 °C 34293.4 hPa NNE 5.1 km/h 20.8 km/h 83 % 0 mm 0 W/m2
04:05 -7.4 °C -8.9 °C 34293.4 hPa Calm   20.8 km/h 84 % 0 mm 0 W/m2
04:10 -7.4 °C -8.9 °C 34293.4 hPa North 7.7 km/h 25.9 km/h 84 % 0 mm 0 W/m2
04:20 -7.5 °C -9.1 °C 34293.4 hPa NNW 10.3 km/h 20.8 km/h 84 % 0 mm 0 W/m2
04:25 -7.6 °C -9 °C 34293.4 hPa NE 2.6 km/h 20.8 km/h 85 % 0 mm 0 W/m2
04:30 -7.6 °C -9 °C 34279.9 hPa ENE 12.9 km/h 23.3 km/h 85 % 0 mm 0 W/m2
04:35 -7.6 °C -9 °C 34293.4 hPa NE 5.1 km/h 23.3 km/h 85 % 0 mm 0 W/m2
04:40 -7.6 °C -9 °C 34279.9 hPa North 12.9 km/h 18.2 km/h 85 % 0 mm 0 W/m2
04:45 -7.6 °C -8.9 °C 34279.9 hPa NNE 12.9 km/h 18.2 km/h 86 % 0 mm 0 W/m2
04:50 -7.7 °C -9 °C 34279.9 hPa NNE 5.1 km/h 18.2 km/h 86 % 0 mm 0 W/m2
04:55 -7.7 °C -9 °C 34279.9 hPa ENE 10.3 km/h 18.2 km/h 86 % 0 mm 0 W/m2
05:00 -7.7 °C -9.1 °C 34293.4 hPa NNE 12.9 km/h 18.2 km/h 86 % 0 mm 0 W/m2
05:05 -7.8 °C -9.1 °C 34293.4 hPa NE 5.1 km/h 15.6 km/h 86 % 0 mm 0 W/m2
05:10 -7.8 °C -9 °C 34279.9 hPa Calm   20.8 km/h 87 % 0 mm 0 W/m2
05:15 -7.8 °C -9 °C 34279.9 hPa Calm   20.8 km/h 87 % 0 mm 0 W/m2
05:20 -7.8 °C -9.1 °C 34279.9 hPa NE 2.6 km/h 18.2 km/h 87 % 0 mm 0 W/m2
05:25 -7.9 °C -9.1 °C 34279.9 hPa NNE 7.7 km/h 18.2 km/h 87 % 0 mm 0 W/m2
05:30 -7.9 °C -9.2 °C 34279.9 hPa Calm   12.9 km/h 87 % 0 mm 0 W/m2
05:35 -7.9 °C -9.1 °C 34279.9 hPa NE 7.7 km/h 15.6 km/h 88 % 0 mm 0 W/m2
05:40 -7.9 °C -9.1 °C 34279.9 hPa North 7.7 km/h 15.6 km/h 88 % 0 mm 0 W/m2
05:45 -8 °C -9.2 °C 34279.9 hPa NNW 5.1 km/h 15.6 km/h 88 % 0 mm 0 W/m2
05:50 -8 °C -9 °C 34279.9 hPa North 7.7 km/h 15.6 km/h 89 % 0 mm 0 W/m2
05:55 -8 °C -9.2 °C 34279.9 hPa North 2.6 km/h 15.6 km/h 88 % 0 mm 0 W/m2
06:00 -8.1 °C -9.2 °C 34279.9 hPa NNE 2.6 km/h 15.6 km/h 88 % 0 mm 0 W/m2
06:05 -8.1 °C -9.1 °C 34293.4 hPa North 2.6 km/h 15.6 km/h 89 % 0 mm 0 W/m2
06:10 -8 °C -9.1 °C 34279.9 hPa NNE 10.3 km/h 18.2 km/h 89 % 0 mm 0 W/m2
06:15 -8.1 °C -9.1 °C 34279.9 hPa NE 5.1 km/h 18.2 km/h 89 % 0 mm 0 W/m2
06:20 -8 °C -9.2 °C 34279.9 hPa Calm   20.8 km/h 88 % 0 mm 0 W/m2
06:25 -8 °C -9.2 °C 34279.9 hPa NNE 2.6 km/h 20.8 km/h 88 % 0 mm 0 W/m2
06:30 -8 °C -9.2 °C 34279.9 hPa NE 10.3 km/h 20.8 km/h 88 % 0 mm 5 W/m2
06:35 -8 °C -9.2 °C 34279.9 hPa NE 5.1 km/h 20.8 km/h 88 % 0 mm 9 W/m2
06:40 -8.1 °C -9.2 °C 34279.9 hPa NNE 5.1 km/h 18.2 km/h 88 % 0 mm 12 W/m2
06:45 -8.1 °C -9.2 °C 34279.9 hPa NNE 12.9 km/h 20.8 km/h 88 % 0 mm 18 W/m2
06:50 -8 °C -9.1 °C 34279.9 hPa NE 10.3 km/h 20.8 km/h 88 % 0 mm 21 W/m2
06:55 -7.9 °C -9.1 °C 34279.9 hPa NNE 5.1 km/h 20.8 km/h 88 % 0 mm 25 W/m2
07:00 -7.9 °C -9.1 °C 34279.9 hPa NE 5.1 km/h 20.8 km/h 88 % 0 mm 26 W/m2
07:05 -7.9 °C -9.1 °C 34279.9 hPa NNW 5.1 km/h 20.8 km/h 87 % 0 mm 28 W/m2
07:10 -7.9 °C -9.1 °C 34279.9 hPa NE 10.3 km/h 20.8 km/h 87 % 0 mm 32 W/m2
07:15 -7.8 °C -9.1 °C 34279.9 hPa Calm   20.8 km/h 87 % 0 mm 32 W/m2
07:20 -7.8 °C -9.1 °C 34279.9 hPa ENE 10.3 km/h 20.8 km/h 87 % 0 mm 32 W/m2
07:25 -7.8 °C -9.1 °C 34279.9 hPa NNE 5.1 km/h 23.3 km/h 87 % 0 mm 33 W/m2
07:30 -7.8 °C -9.1 °C 34279.9 hPa North 18.2 km/h 23.3 km/h 87 % 0 mm 39 W/m2
07:35 -7.8 °C -9.1 °C 34269.7 hPa North 2.6 km/h 23.3 km/h 86 % 0 mm 44 W/m2
07:45 -7.7 °C -9.1 °C 34279.9 hPa NE 12.9 km/h 25.9 km/h 86 % 0 mm 58 W/m2
07:50 -7.7 °C -9.1 °C 34279.9 hPa NE 7.7 km/h 20.8 km/h 85 % 0 mm 70 W/m2
07:55 -7.6 °C -8.9 °C 34279.9 hPa NE 10.3 km/h 23.3 km/h 85 % 0 mm 81 W/m2
08:00 -7.4 °C -8.9 °C 34279.9 hPa NNE 15.6 km/h 28.5 km/h 84 % 0 mm 105 W/m2
08:05 -7.4 °C -9 °C 34279.9 hPa North 15.6 km/h 28.5 km/h 83 % 0 mm 90 W/m2
08:10 -7.3 °C -9 °C 34279.9 hPa North 15.6 km/h 28.5 km/h 83 % 0 mm 95 W/m2
08:15 -7.3 °C -8.9 °C 34279.9 hPa NNE 2.6 km/h 25.9 km/h 83 % 0 mm 95 W/m2
08:20 -7.3 °C -8.9 °C 34279.9 hPa Calm   23.3 km/h 83 % 0 mm 100 W/m2
08:25 -7.3 °C -8.9 °C 34279.9 hPa North 5.1 km/h 18.2 km/h 83 % 0 mm 107 W/m2
08:30 -7.2 °C -8.9 °C 34293.4 hPa Calm   28.5 km/h 83 % 0 mm 153 W/m2
08:35 -7.1 °C -8.9 °C 34293.4 hPa North 15.6 km/h 28.5 km/h 82 % 0 mm 292 W/m2
08:40 -6.9 °C -8.8 °C 34293.4 hPa NE 23.3 km/h 25.9 km/h 81 % 0 mm 292 W/m2
08:45 -6.7 °C -8.7 °C 34293.4 hPa NNE 2.6 km/h 25.9 km/h 80 % 0 mm 302 W/m2
08:50 -6.6 °C -8.6 °C 34293.4 hPa North 10.3 km/h 25.9 km/h 79 % 0 mm 313 W/m2
08:55 -6.5 °C -8.8 °C 34293.4 hPa NNE 20.8 km/h 33.6 km/h 77 % 0 mm 325 W/m2
09:00 -6.4 °C -8.7 °C 34293.4 hPa NNE 15.6 km/h 33.6 km/h 77 % 0 mm 336 W/m2
09:05 -6.3 °C -8.7 °C 34293.4 hPa NNE 15.6 km/h 28.5 km/h 76 % 0 mm 352 W/m2
09:10 -6.2 °C -8.8 °C 34293.4 hPa North 18.2 km/h 28.5 km/h 75 % 0 mm 362 W/m2
09:15 -6 °C -8.4 °C 34293.4 hPa NW 15.6 km/h 28.5 km/h 76 % 0 mm 376 W/m2
09:20 -5.8 °C -8.5 °C 34279.9 hPa NNE 10.3 km/h 28.5 km/h 74 % 0 mm 387 W/m2
09:25 -5.6 °C -8.4 °C 34279.9 hPa North 18.2 km/h 23.3 km/h 73 % 0 mm 403 W/m2
09:30 -5.5 °C -8.4 °C 34293.4 hPa North 31.1 km/h 31.1 km/h 72 % 0 mm 417 W/m2
09:35 -5.4 °C -8.5 °C 34293.4 hPa NNE 15.6 km/h 31.1 km/h 71 % 0 mm 434 W/m2
09:40 -5.4 °C -8.4 °C 34279.9 hPa NE 15.6 km/h 25.9 km/h 71 % 0 mm 446 W/m2
09:45 -5.2 °C -8.4 °C 34279.9 hPa NNE 7.7 km/h 25.9 km/h 70 % 0 mm 461 W/m2
09:50 -5.1 °C -8.4 °C 34279.9 hPa North 12.9 km/h 23.3 km/h 69 % 0 mm 475 W/m2
09:55 -4.9 °C -8.3 °C 34279.9 hPa ENE 10.3 km/h 28.5 km/h 69 % 0 mm 490 W/m2
10:00 -4.9 °C -8.2 °C 34279.9 hPa NNE 2.6 km/h 28.5 km/h 69 % 0 mm 504 W/m2
10:05 -4.7 °C -8.2 °C 34279.9 hPa North 12.9 km/h 23.3 km/h 68 % 0 mm 520 W/m2
10:15 -4.6 °C -8.3 °C 34279.9 hPa North 20.8 km/h 25.9 km/h 66 % 0 mm 543 W/m2
10:20 -4.4 °C -8.2 °C 34279.9 hPa NNW 10.3 km/h 23.3 km/h 66 % 0 mm 555 W/m2
10:30 -4.3 °C -8.1 °C 34279.9 hPa NE 10.3 km/h 20.8 km/h 66 % 0 mm 584 W/m2
10:35 -4.2 °C -8.1 °C 34279.9 hPa NNW 18.2 km/h 28.5 km/h 65 % 0 mm 596 W/m2
10:40 -3.9 °C -7.8 °C 34279.9 hPa NNW 2.6 km/h 28.5 km/h 65 % 0 mm 608 W/m2
10:45 -3.7 °C -7.9 °C 34279.9 hPa NNW 15.6 km/h 25.9 km/h 63 % 0 mm 622 W/m2
10:50 -3.7 °C -7.9 °C 34279.9 hPa NW 15.6 km/h 20.8 km/h 63 % 0 mm 633 W/m2
10:55 -3.5 °C -8 °C 34279.9 hPa North 7.7 km/h 20.8 km/h 61 % 0 mm 645 W/m2
11:00 -3.3 °C -7.8 °C 34269.7 hPa ENE 10.3 km/h 23.3 km/h 61 % 0 mm 656 W/m2
11:05 -3.3 °C -7.9 °C 34269.7 hPa ENE 12.9 km/h 25.9 km/h 60 % 0 mm 664 W/m2
11:10 -3.1 °C -7.7 °C 34269.7 hPa North 15.6 km/h 25.9 km/h 60 % 0 mm 679 W/m2
11:20 -3.2 °C -7.8 °C 34269.7 hPa North 5.1 km/h 28.5 km/h 60 % 0 mm 698 W/m2
11:25 -2.9 °C -7.6 °C 34269.7 hPa ENE 23.3 km/h 25.9 km/h 60 % 0 mm 710 W/m2
11:30 -2.9 °C -7.9 °C 34269.7 hPa NNE 15.6 km/h 25.9 km/h 58 % 0 mm 717 W/m2
11:35 -2.7 °C -7.7 °C 34269.7 hPa NNE 7.7 km/h 25.9 km/h 58 % 0 mm 728 W/m2
11:40 -2.6 °C -7.8 °C 34269.7 hPa ENE 20.8 km/h 28.5 km/h 57 % 0 mm 735 W/m2
11:45 -2.6 °C -7.7 °C 34269.7 hPa NE 5.1 km/h 28.5 km/h 57 % 0 mm 745 W/m2
11:50 -2.3 °C -7.8 °C 34269.7 hPa NNW 12.9 km/h 31.1 km/h 55 % 0 mm 751 W/m2
11:55 -2.3 °C -7.7 °C 34269.7 hPa NNW 12.9 km/h 31.1 km/h 56 % 0 mm 761 W/m2
12:00 -2.2 °C -7.7 °C 34269.7 hPa NNE 15.6 km/h 28.5 km/h 55 % 0 mm 770 W/m2
12:05 -2.2 °C -8 °C 34256.2 hPa ENE 20.8 km/h 25.9 km/h 53 % 0 mm 779 W/m2
12:10 -2.1 °C -7.7 °C 34256.2 hPa NNE 7.7 km/h 23.3 km/h 54 % 0 mm 788 W/m2
12:15 -1.8 °C -7.6 °C 34256.2 hPa NNW 15.6 km/h 25.9 km/h 53 % 0 mm 795 W/m2
12:20 -1.8 °C -7.8 °C 34256.2 hPa West 7.7 km/h 28.5 km/h 52 % 0 mm 800 W/m2
12:25 -1.8 °C -7.7 °C 34256.2 hPa WNW 10.3 km/h 28.5 km/h 53 % 0 mm 803 W/m2
12:30 -1.4 °C -7.4 °C 34256.2 hPa NNE 15.6 km/h 33.6 km/h 52 % 0 mm 812 W/m2
12:35 -1.6 °C -7.8 °C 34256.2 hPa Calm   33.6 km/h 51 % 0 mm 819 W/m2
12:40 -1.4 °C -7.3 °C 34256.2 hPa WNW 7.7 km/h 20.8 km/h 53 % 0 mm 824 W/m2
12:45 -1.3 °C -7.9 °C 34256.2 hPa North 12.9 km/h 20.8 km/h 49 % 0 mm 828 W/m2
12:50 -1.3 °C -8.1 °C 34256.2 hPa NW 15.6 km/h 28.5 km/h 48 % 0 mm 837 W/m2
12:55 -1.3 °C -7.7 °C 34256.2 hPa NNE 7.7 km/h 28.5 km/h 50 % 0 mm 840 W/m2
13:00 -1 °C -7.8 °C 34256.2 hPa ENE 7.7 km/h 23.3 km/h 48 % 0 mm 847 W/m2
13:05 -1.2 °C -7.7 °C 34256.2 hPa East 15.6 km/h 28.5 km/h 49 % 0 mm 851 W/m2
13:10 -0.9 °C -7.9 °C 34256.2 hPa NNW 15.6 km/h 28.5 km/h 47 % 0 mm 860 W/m2
13:15 -1.1 °C -7.7 °C 34256.2 hPa NW 7.7 km/h 23.3 km/h 49 % 0 mm 861 W/m2
13:20 -1.1 °C -7.9 °C 34256.2 hPa NNE 7.7 km/h 25.9 km/h 48 % 0 mm 872 W/m2
13:25 -0.9 °C -8.1 °C 34246 hPa ENE 2.6 km/h 31.1 km/h 46 % 0 mm 737 W/m2
13:30 -1 °C -8 °C 34246 hPa North 2.6 km/h 31.1 km/h 47 % 0 mm 846 W/m2
13:35 -1.1 °C -8.1 °C 34246 hPa North 7.7 km/h 23.3 km/h 47 % 0 mm 728 W/m2
13:40 -1.2 °C -7.7 °C 34246 hPa NW 10.3 km/h 23.3 km/h 49 % 0 mm 670 W/m2
13:45 -1.3 °C -8.1 °C 34246 hPa ENE 7.7 km/h 23.3 km/h 48 % 0 mm 459 W/m2
13:55 -1.2 °C -8.2 °C 34235.8 hPa North 5.1 km/h 20.8 km/h 47 % 0 mm 568 W/m2
14:00 -1.2 °C -7.4 °C 34235.8 hPa WNW 12.9 km/h 18.2 km/h 51 % 0 mm 816 W/m2
14:05 -0.9 °C -7.9 °C 34235.8 hPa NW 7.7 km/h 18.2 km/h 47 % 0 mm 496 W/m2
14:10 -0.7 °C -7.5 °C 34235.8 hPa North 2.6 km/h 18.2 km/h 48 % 0 mm 768 W/m2
14:15 -0.5 °C -7.7 °C 34235.8 hPa NW 25.9 km/h 25.9 km/h 46 % 0 mm 891 W/m2
14:20 -0.4 °C -7.4 °C 34235.8 hPa West 7.7 km/h 28.5 km/h 47 % 0 mm 882 W/m2
14:25 -0.3 °C -7.6 °C 34235.8 hPa West 18.2 km/h 28.5 km/h 46 % 0 mm 882 W/m2
14:30 -0.5 °C -7.3 °C 34222.3 hPa WNW 5.1 km/h 25.9 km/h 48 % 0 mm 882 W/m2
14:35 -0.6 °C -7.8 °C 34235.8 hPa West 10.3 km/h 25.9 km/h 46 % 0 mm 888 W/m2
14:40 -0.4 °C -7.2 °C 34235.8 hPa WNW 7.7 km/h 25.9 km/h 48 % 0 mm 884 W/m2
14:45 -0.5 °C -7.2 °C 34235.8 hPa WNW 10.3 km/h 25.9 km/h 49 % 0 mm 904 W/m2
14:50 -0.5 °C -7.2 °C 34235.8 hPa NW 15.6 km/h 31.1 km/h 49 % 0 mm 893 W/m2
14:55 -0.9 °C -7.2 °C 34222.3 hPa WNW 18.2 km/h 31.1 km/h 51 % 0 mm 879 W/m2
15:00 -0.7 °C -6.9 °C 34222.3 hPa West 12.9 km/h 25.9 km/h 51 % 0 mm 877 W/m2
15:05 -0.8 °C -7.1 °C 34222.3 hPa NNW 12.9 km/h 25.9 km/h 51 % 0 mm 875 W/m2
15:10 -1.2 °C -7.2 °C 34235.8 hPa WNW 23.3 km/h 36.2 km/h 52 % 0 mm 868 W/m2
15:15 -1.3 °C -7.3 °C 34222.3 hPa WNW 10.3 km/h 36.2 km/h 52 % 0 mm 863 W/m2
15:20 -1.6 °C -7.4 °C 34222.3 hPa WSW 15.6 km/h 36.2 km/h 53 % 0 mm 847 W/m2
15:25 -1.3 °C -7.3 °C 34222.3 hPa WNW 10.3 km/h 36.2 km/h 52 % 0 mm 849 W/m2
15:30 -1.3 °C -7.3 °C 34222.3 hPa WNW 12.9 km/h 31.1 km/h 52 % 0 mm 847 W/m2
15:35 -1.1 °C -7 °C 34222.3 hPa WSW 5.1 km/h 31.1 km/h 53 % 0 mm 844 W/m2
15:40 -1.2 °C -7.4 °C 34222.3 hPa WNW 12.9 km/h 38.8 km/h 51 % 0 mm 842 W/m2
15:45 -1.2 °C -7.1 °C 34222.3 hPa West 12.9 km/h 38.8 km/h 53 % 0 mm 837 W/m2
15:50 -0.9 °C -7.3 °C 34222.3 hPa West 18.2 km/h 33.6 km/h 50 % 0 mm 838 W/m2
15:55 -1.2 °C -7.6 °C 34222.3 hPa WNW 18.2 km/h 33.6 km/h 50 % 0 mm 817 W/m2
16:00 -1.3 °C -7.2 °C 34222.3 hPa WNW 5.1 km/h 41.4 km/h 53 % 0 mm 809 W/m2
16:05 -1.2 °C -7.3 °C 34222.3 hPa West 5.1 km/h 41.4 km/h 52 % 0 mm 788 W/m2
16:10 -1.2 °C -6.9 °C 34222.3 hPa NW 25.9 km/h 36.2 km/h 54 % 0 mm 788 W/m2
16:15 -1.2 °C -7.1 °C 34222.3 hPa NW 7.7 km/h 33.6 km/h 53 % 0 mm 763 W/m2
16:20 -1.2 °C -7.4 °C 34222.3 hPa WNW 18.2 km/h 36.2 km/h 51 % 0 mm 754 W/m2
16:25 -1.3 °C -7.1 °C 34222.3 hPa NW 18.2 km/h 36.2 km/h 54 % 0 mm 747 W/m2
16:30 -1.5 °C -7.2 °C 34222.3 hPa West 25.9 km/h 36.2 km/h 54 % 0 mm 680 W/m2
16:35 -1.3 °C -6.9 °C 34222.3 hPa WNW 23.3 km/h 36.2 km/h 55 % 0 mm 721 W/m2
16:40 -1.2 °C -7.1 °C 34222.3 hPa WNW 23.3 km/h 38.8 km/h 53 % 0 mm 717 W/m2
16:45 -1.4 °C -7.1 °C 34212.1 hPa NW 7.7 km/h 38.8 km/h 54 % 0 mm 714 W/m2
16:50 -1.3 °C -7.2 °C 34212.1 hPa NW 15.6 km/h 33.6 km/h 53 % 0 mm 703 W/m2
16:55 -1.3 °C -7.3 °C 34212.1 hPa NW 23.3 km/h 33.6 km/h 52 % 0 mm 694 W/m2
17:00 -1.3 °C -7.2 °C 34212.1 hPa West 12.9 km/h 33.6 km/h 53 % 0 mm 687 W/m2
17:05 -1.2 °C -7.1 °C 34212.1 hPa WNW 7.7 km/h 33.6 km/h 53 % 0 mm 670 W/m2
17:10 -1.2 °C -7.1 °C 34212.1 hPa WNW 18.2 km/h 33.6 km/h 53 % 0 mm 657 W/m2
17:20 -1.1 °C -7 °C 34212.1 hPa NW 15.6 km/h 33.6 km/h 53 % 0 mm 638 W/m2
17:25 -1.3 °C -7.5 °C 34198.6 hPa WNW 15.6 km/h 36.2 km/h 51 % 0 mm 626 W/m2
17:30 -1.2 °C -7.2 °C 34198.6 hPa WNW 10.3 km/h 36.2 km/h 52 % 0 mm 615 W/m2
17:35 -1.5 °C -7.5 °C 34198.6 hPa NW 15.6 km/h 38.8 km/h 52 % 0 mm 601 W/m2
17:40 -1.4 °C -7.4 °C 34198.6 hPa NW 20.8 km/h 38.8 km/h 52 % 0 mm 545 W/m2
17:45 -1.9 °C -7.6 °C 34198.6 hPa WNW 10.3 km/h 38.8 km/h 54 % 0 mm 550 W/m2
17:50 -1.8 °C -7.5 °C 34198.6 hPa NW 15.6 km/h 38.8 km/h 54 % 0 mm 548 W/m2
17:55 -1.8 °C -7.6 °C 34198.6 hPa WNW 15.6 km/h 36.2 km/h 53 % 0 mm 568 W/m2
18:00 -1.8 °C -7.7 °C 34198.6 hPa West 18.2 km/h 36.2 km/h 53 % 0 mm 492 W/m2
18:05 -2 °C -7.5 °C 34198.6 hPa WNW 10.3 km/h 36.2 km/h 55 % 0 mm 547 W/m2
18:10 -2.1 °C -7.8 °C 34198.6 hPa NW 23.3 km/h 36.2 km/h 54 % 0 mm 468 W/m2
18:15 -2.4 °C -7.9 °C 34198.6 hPa WNW 12.9 km/h 41.4 km/h 55 % 0 mm 494 W/m2
18:20 -2.4 °C -7.8 °C 34198.6 hPa West 10.3 km/h 41.4 km/h 56 % 0 mm 169 W/m2
18:25 -2.7 °C -7.7 °C 34198.6 hPa NW 10.3 km/h 31.1 km/h 58 % 0 mm 181 W/m2
18:30 -2.9 °C -7.8 °C 34198.6 hPa West 12.9 km/h 31.1 km/h 58 % 0 mm 267 W/m2
18:35 -2.7 °C -7.7 °C 34198.6 hPa West 15.6 km/h 31.1 km/h 58 % 0 mm 248 W/m2
18:40 -2.9 °C -7.6 °C 34198.6 hPa WNW 2.6 km/h 28.5 km/h 60 % 0 mm 301 W/m2
18:45 -2.8 °C -7.6 °C 34198.6 hPa WNW 23.3 km/h 31.1 km/h 59 % 0 mm 578 W/m2
18:50 -2.4 °C -7.6 °C 34198.6 hPa WNW 7.7 km/h 31.1 km/h 57 % 0 mm 589 W/m2
18:55 -1.9 °C -7.4 °C 34198.6 hPa West 10.3 km/h 31.1 km/h 55 % 0 mm 503 W/m2
19:00 -2.2 °C -7.6 °C 34198.6 hPa WNW 12.9 km/h 33.6 km/h 56 % 0 mm 490 W/m2
19:05 -2.3 °C -7.9 °C 34198.6 hPa WNW 7.7 km/h 33.6 km/h 54 % 0 mm 250 W/m2
19:10 -2.7 °C -8.2 °C 34198.6 hPa WNW 15.6 km/h 31.1 km/h 55 % 0 mm 183 W/m2
19:15 -3.2 °C -8.1 °C 34198.6 hPa WNW 10.3 km/h 31.1 km/h 58 % 0 mm 167 W/m2
19:20 -3.4 °C -8 °C 34198.6 hPa West 12.9 km/h 31.1 km/h 60 % 0 mm 193 W/m2
19:25 -3.4 °C -8.1 °C 34198.6 hPa WNW 12.9 km/h 36.2 km/h 60 % 0 mm 186 W/m2
19:30 -3.3 °C -8 °C 34198.6 hPa West 18.2 km/h 36.2 km/h 60 % 0 mm 169 W/m2
19:35 -3.5 °C -8.1 °C 34198.6 hPa WNW 10.3 km/h 25.9 km/h 60 % 0 mm 155 W/m2
19:40 -3.7 °C -8.1 °C 34198.6 hPa NW 7.7 km/h 31.1 km/h 62 % 0 mm 144 W/m2
19:45 -3.8 °C -8 °C 34198.6 hPa WNW 7.7 km/h 31.1 km/h 63 % 0 mm 130 W/m2
19:50 -3.9 °C -8.3 °C 34198.6 hPa WNW 15.6 km/h 25.9 km/h 62 % 0 mm 125 W/m2
19:55 -3.9 °C -8 °C 34198.6 hPa WNW 7.7 km/h 31.1 km/h 64 % 0 mm 193 W/m2
20:00 -3.9 °C -8.1 °C 34198.6 hPa WNW 18.2 km/h 33.6 km/h 63 % 0 mm 135 W/m2
20:05 -4.1 °C -8.1 °C 34198.6 hPa NW 12.9 km/h 33.6 km/h 64 % 0 mm 114 W/m2
20:10 -4.1 °C -8.1 °C 34198.6 hPa NNW 12.9 km/h 28.5 km/h 65 % 0 mm 105 W/m2
20:15 -4.2 °C -8.1 °C 34212.1 hPa WNW 15.6 km/h 25.9 km/h 65 % 0 mm 128 W/m2
20:20 -4.2 °C -8 °C 34198.6 hPa NW 20.8 km/h 28.5 km/h 66 % 0 mm 105 W/m2
20:25 -4.3 °C -7.9 °C 34212.1 hPa Calm   28.5 km/h 67 % 0 mm 104 W/m2
20:30 -4.4 °C -7.9 °C 34212.1 hPa West 20.8 km/h 25.9 km/h 68 % 0 mm 86 W/m2
20:35 -4.5 °C -8 °C 34212.1 hPa WNW 23.3 km/h 31.1 km/h 68 % 0 mm 118 W/m2
20:40 -4.5 °C -7.9 °C 34212.1 hPa NW 12.9 km/h 31.1 km/h 68 % 0 mm 93 W/m2
20:45 -4.6 °C -7.8 °C 34212.1 hPa West 10.3 km/h 25.9 km/h 70 % 0 mm 86 W/m2
20:50 -4.7 °C -8.1 °C 34212.1 hPa WNW 12.9 km/h 23.3 km/h 69 % 0 mm 60 W/m2
20:55 -4.8 °C -8.2 °C 34212.1 hPa NW 10.3 km/h 23.3 km/h 69 % 0 mm 42 W/m2
21:00 -4.9 °C -8 °C 34212.1 hPa WNW 12.9 km/h 23.3 km/h 71 % 0 mm 37 W/m2
21:05 -5.1 °C -8.1 °C 34222.3 hPa WNW 10.3 km/h 23.3 km/h 71 % 0 mm 39 W/m2
21:10 -5.1 °C -8.2 °C 34222.3 hPa WNW 7.7 km/h 20.8 km/h 71 % 0 mm 39 W/m2
21:15 -5.1 °C -8.2 °C 34222.3 hPa NW 10.3 km/h 28.5 km/h 71 % 0 mm 33 W/m2
21:20 -5.2 °C -8.1 °C 34222.3 hPa WNW 12.9 km/h 28.5 km/h 72 % 0 mm 33 W/m2
21:25 -5.2 °C -8.2 °C 34222.3 hPa WNW 10.3 km/h 23.3 km/h 72 % 0 mm 30 W/m2
21:30 -5.3 °C -8.3 °C 34222.3 hPa WNW 15.6 km/h 25.9 km/h 72 % 0 mm 19 W/m2
21:35 -5.4 °C -8.2 °C 34222.3 hPa NW 18.2 km/h 31.1 km/h 73 % 0 mm 16 W/m2
21:40 -5.5 °C -8.2 °C 34222.3 hPa NNW 7.7 km/h 31.1 km/h 74 % 0 mm 12 W/m2
21:45 -5.6 °C -8.2 °C 34222.3 hPa WNW 7.7 km/h 23.3 km/h 75 % 0 mm 9 W/m2
21:50 -5.7 °C -8 °C 34222.3 hPa NW 12.9 km/h 23.3 km/h 77 % 0 mm 7 W/m2
22:00 -5.9 °C -8.1 °C 34235.8 hPa WNW 2.6 km/h 20.8 km/h 79 % 0 mm 5 W/m2
22:05 -6.1 °C -7.9 °C 34235.8 hPa WNW 2.6 km/h 15.6 km/h 81 % 0 mm 0 W/m2
22:10 -6.2 °C -7.9 °C 34235.8 hPa WNW 7.7 km/h 18.2 km/h 82 % 0 mm 0 W/m2
22:15 -6.2 °C -8 °C 34235.8 hPa NW 7.7 km/h 23.3 km/h 82 % 0 mm 0 W/m2
22:20 -6.2 °C -8 °C 34235.8 hPa NW 7.7 km/h 23.3 km/h 82 % 0 mm 0 W/m2
22:25 -6.3 °C -8.1 °C 34235.8 hPa Calm   20.8 km/h 82 % 0 mm 0 W/m2
22:30 -6.3 °C -7.9 °C 34235.8 hPa WNW 10.3 km/h 20.8 km/h 83 % 0 mm 0 W/m2
22:35 -6.3 °C -7.9 °C 34235.8 hPa West 5.1 km/h 23.3 km/h 83 % 0 mm 0 W/m2
22:40 -6.3 °C -8.1 °C 34235.8 hPa WNW 7.7 km/h 23.3 km/h 82 % 0 mm 0 W/m2
22:45 -6.3 °C -8.1 °C 34235.8 hPa West 15.6 km/h 20.8 km/h 82 % 0 mm 0 W/m2
22:50 -6.3 °C -7.9 °C 34235.8 hPa NW 12.9 km/h 20.8 km/h 83 % 0 mm 0 W/m2
22:55 -6.3 °C -7.9 °C 34246 hPa Calm   20.8 km/h 83 % 0 mm 0 W/m2
23:00 -6.3 °C -8 °C 34235.8 hPa NW 12.9 km/h 18.2 km/h 83 % 0 mm 0 W/m2
23:05 -6.4 °C -8.1 °C 34235.8 hPa NW 7.7 km/h 18.2 km/h 83 % 0 mm 0 W/m2
23:10 -6.4 °C -8 °C 34235.8 hPa West 2.6 km/h 15.6 km/h 84 % 0 mm 0 W/m2
23:15 -6.5 °C -8.2 °C 34235.8 hPa WNW 7.7 km/h 12.9 km/h 83 % 0 mm 0 W/m2
23:20 -6.5 °C -8.1 °C 34246 hPa WNW 5.1 km/h 10.3 km/h 84 % 0 mm 0 W/m2
23:25 -6.5 °C -8.1 °C 34246 hPa Calm   12.9 km/h 84 % 0 mm 0 W/m2
23:30 -6.5 °C -8.1 °C 34256.2 hPa Calm   12.9 km/h 84 % 0 mm 0 W/m2
23:35 -6.5 °C -8.1 °C 34256.2 hPa Calm   10.3 km/h 84 % 0 mm 0 W/m2
23:40 -6.4 °C -8 °C 34256.2 hPa West 5.1 km/h 10.3 km/h 84 % 0 mm 0 W/m2
23:45 -6.5 °C -7.9 °C 34246 hPa Calm   7.7 km/h 85 % 0 mm 0 W/m2
23:50 -6.6 °C -8 °C 34246 hPa Calm   7.7 km/h 85 % 0 mm 0 W/m2
23:55 -6.6 °C -7.9 °C 34246 hPa Calm   7.7 km/h 86 % 0 mm 0 W/m2
Avec l'autorisation de Weather Underground - 1.75 mb